Theta_e
310 309 309 307 307 307 309 308 308 308 308 307 307 306 305 305 301 299 297 298 299 302 303 300 303 305 306 305 307 306 305 305 306 307 306 305 305 304 303 302 303 303 303 302 302 304 305 306 307 310 311 311 310 310 310 310 311 312 313 314 315 315 322 322 321 324 329 332 330 327 325 326 327 325
309 309 308 308 307 308 308 307 308 308 307 306 306 305 305 305 302 302 298 297 300 300 303 303 301 304 305 305 306 306 306 305 306 306 306 305 304 303 303 302 302 301 302 300 300 302 303 304 305 307 309 308 308 307 308 308 309 311 311 310 310 310 310 315 324 326 327 328 328 326 326 326 325 325
308 307 307 307 307 308 307 307 307 307 307 306 305 305 305 305 305 303 302 298 300 302 300 302 304 303 305 305 306 306 306 305 305 306 306 305 303 303 303 301 300 301 301 301 301 303 303 303 303 304 305 306 307 305 306 306 307 309 307 304 305 307 308 309 312 323 328 328 329 329 326 325 324 325
308 306 306 307 307 307 306 306 307 306 307 307 305 305 304 304 305 304 302 299 298 301 301 302 303 304 305 304 304 305 305 306 304 306 306 305 304 304 304 302 300 300 300 300 301 301 302 303 303 303 304 304 305 304 303 303 304 304 302 302 303 303 305 306 307 312 323 327 327 328 326 324 324 325
308 306 305 305 306 307 306 306 306 306 306 306 305 305 304 303 303 303 302 300 299 301 303 303 302 304 305 303 304 304 304 305 305 305 305 305 304 304 304 304 300 300 300 299 300 299 299 300 303 302 302 302 302 300 300 300 300 302 301 300 300 301 303 304 303 304 312 324 325 325 325 322 322 322
308 307 305 304 306 306 305 306 305 305 305 305 303 303 303 302 302 303 302 300 299 298 301 301 303 303 304 302 304 303 303 304 305 304 305 305 305 304 304 304 303 299 299 299 299 300 299 299 299 298 298 298 298 298 298 299 298 299 299 297 298 300 302 303 302 302 308 317 323 322 322 320 320 321
306 306 305 304 306 306 305 305 305 306 305 305 304 303 303 302 303 303 303 301 299 299 298 301 301 302 303 302 301 303 304 304 304 304 304 304 305 305 305 304 304 300 299 299 299 299 299 299 298 298 298 298 298 298 298 298 297 297 297 297 298 298 299 299 299 300 304 307 312 313 315 317 319 321
306 305 305 305 305 305 304 304 304 304 305 304 304 303 303 303 302 303 303 302 301 300 298 300 300 301 301 301 302 303 304 304 303 304 304 305 305 305 305 305 304 302 300 300 299 299 300 299 298 298 298 298 298 298 298 298 297 297 297 297 297 297 297 298 298 298 300 301 303 308 310 309 315 322
306 306 306 305 305 305 303 303 303 304 305 304 304 303 303 302 303 303 302 302 302 300 299 299 300 302 302 302 302 302 301 302 303 304 303 303 304 304 305 305 304 302 301 301 300 300 300 299 299 299 298 298 298 298 298 298 297 297 297 297 297 297 297 297 297 297 298 298 298 302 306 304 307 313
308 307 306 306 306 305 304 303 303 304 304 304 303 303 303 303 303 303 303 303 302 301 299 299 299 301 300 301 301 302 302 300 300 301 303 303 304 303 303 303 304 304 304 304 302 300 301 300 299 298 299 298 298 298 298 298 297 297 297 296 296 297 297 297 297 297 297 297 297 298 299 301 303 308
309 308 308 307 307 305 304 304 303 303 304 303 303 303 303 303 303 302 302 302 301 301 300 299 299 299 300 301 299 301 303 302 301 300 300 300 302 303 302 301 303 303 304 303 301 301 301 302 301 299 299 299 298 298 298 298 297 297 296 296 296 296 296 296 296 297 297 297 297 297 297 297 300 303
310 309 308 307 307 307 306 305 305 305 303 303 303 303 303 303 303 302 302 302 301 300 300 298 297 298 298 299 301 301 301 300 300 301 300 298 299 301 302 302 300 301 303 303 303 301 302 302 301 301 300 300 299 298 298 298 298 297 296 296 296 296 296 296 296 296 296 297 297 296 296 296 296 299
310 309 309 309 308 310 308 306 306 305 305 304 302 303 304 303 303 302 302 301 300 300 299 298 299 297 296 297 298 297 297 297 297 300 301 299 300 301 301 301 302 301 300 302 303 301 302 302 302 302 302 301 300 300 298 298 298 297 296 295 295 296 295 295 296 296 296 296 296 296 296 296 296 296
309 310 310 311 308 306 305 303 299 298 299 302 305 304 304 303 303 302 301 300 300 300 298 298 298 296 296 296 297 297 298 300 300 300 299 298 299 300 299 300 301 301 301 301 301 300 302 302 302 301 300 301 301 300 298 297 296 296 296 295 295 295 295 295 295 296 296 296 296 296 296 296 296 296
307 308 309 309 307 306 304 303 296 296 296 295 295 295 297 299 304 303 301 300 301 299 298 298 298 297 297 297 298 298 298 300 299 298 298 298 299 297 295 294 299 301 300 300 301 298 301 302 300 301 300 301 302 300 297 295 296 295 295 295 295 295 295 295 295 295 295 295 295 295 296 296 296 296
307 307 308 309 310 309 308 306 304 301 296 295 295 294 294 293 293 294 301 302 301 301 299 298 298 298 298 297 298 298 299 299 299 299 298 298 297 296 295 295 295 299 301 299 299 298 300 301 300 299 300 301 302 300 297 295 295 295 295 295 295 295 295 295 295 294 294 294 295 295 295 295 295 295
307 307 307 308 309 307 306 307 306 304 303 298 297 297 297 296 295 292 291 293 302 304 301 300 299 299 300 298 299 301 301 301 298 298 296 298 298 297 296 297 298 299 301 299 298 296 298 299 299 297 299 301 301 301 297 295 295 295 295 295 294 294 294 295 295 294 294 294 294 294 295 294 294 294
307 307 307 306 307 308 308 308 307 306 305 305 305 305 305 304 301 296 294 294 294 299 303 302 300 301 303 300 302 303 303 300 298 297 296 299 298 298 298 299 300 301 301 297 298 296 296 299 298 297 299 301 300 301 298 295 295 295 295 295 294 294 294 294 294 294 294 294 294 294 294 294 294 294
307 307 308 308 307 307 307 308 307 307 306 306 305 305 305 305 305 306 306 305 305 304 304 304 303 303 303 303 303 303 303 303 302 302 301 301 301 301 300 300 300 301 301 299 298 295 296 299 297 297 298 299 299 300 298 296 295 295 295 295 294 294 294 294 294 294 294 294 294 294 294 293 293 294
305 305 307 308 307 307 307 302 295 301 307 306 304 303 304 304 305 305 301 296 297 303 305 305 304 303 301 296 301 300 301 302 303 303 301 303 301 299 296 295 298 296 299 300 297 297 295 298 297 297 299 299 298 299 300 297 296 296 295 295 294 294 294 294 294 294 294 294 293 293 293 293 293 294
304 304 305 307 307 307 307 298 292 294 299 305 304 303 303 303 304 303 305 296 293 292 292 291 291 291 292 292 293 292 292 297 301 302 298 298 300 296 295 295 296 295 298 298 298 298 294 298 297 297 298 300 296 297 298 300 297 296 296 295 295 294 294 294 294 294 294 294 294 293 293 293 293 296
306 304 299 301 306 307 306 292 292 292 301 305 304 303 302 302 301 303 304 305 303 292 292 292 291 292 293 293 294 293 293 294 298 302 297 300 299 297 296 294 295 296 297 296 297 297 295 298 298 296 298 299 297 297 298 299 299 297 297 296 295 294 294 294 294 294 294 294 294 293 293 293 294 297
304 303 300 298 301 306 301 290 292 291 299 306 304 303 303 301 301 301 304 304 303 304 304 304 305 302 301 305 305 303 294 296 299 303 302 301 299 296 296 296 296 294 295 297 297 294 296 297 297 297 295 294 296 298 297 298 299 299 299 299 299 295 295 294 295 294 294 294 294 293 293 293 293 296
303 303 303 298 290 290 290 291 291 292 292 306 305 304 303 302 300 303 304 304 303 302 301 302 303 303 303 304 305 305 305 305 304 303 303 303 301 299 297 297 297 294 295 299 298 295 297 298 296 298 296 293 290 295 297 297 297 298 299 298 298 296 295 295 295 295 294 294 294 293 293 293 293 295
302 302 302 303 292 289 290 290 290 291 291 295 307 305 304 304 304 301 303 301 297 302 302 302 301 301 301 301 301 301 301 301 303 303 304 303 303 301 298 297 296 296 298 300 295 298 296 297 296 297 296 296 295 294 295 296 297 297 298 298 297 296 296 297 296 297 295 295 294 293 293 293 293 293
301 302 302 302 294 289 290 290 290 290 291 291 304 305 291 289 290 302 303 303 303 301 300 300 299 299 299 299 299 298 299 299 300 303 303 304 304 303 302 300 298 296 297 301 295 299 297 297 296 295 295 295 295 294 293 293 296 296 298 298 298 296 296 295 296 296 296 296 296 294 294 293 293 293
301 302 303 300 292 289 289 289 289 290 289 294 300 288 289 290 289 295 302 301 302 300 299 299 299 299 299 298 297 297 297 299 301 301 302 302 303 303 304 303 302 301 301 303 302 301 299 297 299 296 295 296 294 293 294 292 292 295 295 297 298 297 296 295 294 295 295 295 296 294 294 293 292 292
300 301 302 299 289 289 289 289 289 290 293 296 288 289 288 289 292 301 301 300 300 299 298 298 298 298 298 298 298 297 299 299 301 301 301 302 302 301 301 303 302 302 302 302 302 302 300 298 298 299 299 296 294 292 292 294 294 294 293 296 297 296 296 295 295 295 295 295 295 294 294 293 294 293
302 297 291 288 289 289 289 288 290 291 290 288 289 289 289 294 301 301 300 300 300 299 297 296 298 298 298 298 298 300 301 301 303 302 302 303 304 304 303 301 300 301 301 302 302 301 300 299 298 300 300 298 295 295 294 293 293 293 293 293 293 295 295 296 295 294 295 295 294 293 293 292 292 293
291 289 289 289 288 289 292 300 300 300 299 289 289 288 292 302 299 299 299 299 298 298 297 296 296 297 298 298 300 300 300 301 298 299 298 298 298 299 298 298 299 301 301 301 300 300 300 299 300 300 298 298 297 296 296 295 293 295 294 293 293 296 295 295 294 294 294 294 294 293 294 293 293 293
297 295 295 296 293 293 289 292 292 294 292 296 298 299 299 300 299 299 299 299 298 298 297 296 297 297 298 299 299 299 298 298 298 299 297 297 297 297 297 297 296 297 301 301 300 299 299 299 300 300 297 297 297 297 298 298 292 292 294 295 294 289 292 294 295 294 294 295 295 294 294 293 293 293
302 300 293 293 298 298 299 298 299 299 299 298 297 299 299 299 299 297 293 295 299 298 298 297 297 297 298 298 297 297 297 297 297 298 298 296 296 296 297 296 295 296 297 299 301 301 296 300 299 300 300 299 296 297 299 298 295 295 295 295 295 295 294 293 294 294 296 296 295 293 293 293 292 292
300 299 298 299 298 299 294 295 298 298 298 297 298 299 299 299 299 299 298 298 298 299 297 296 297 296 298 297 297 296 297 297 297 298 298 299 297 297 298 295 295 294 294 295 297 299 301 302 299 298 299 299 299 298 297 295 295 297 295 295 295 294 294 295 294 295 296 295 294 293 292 293 293 292
299 299 296 297 296 296 297 296 295 295 296 297 296 297 293 296 298 298 297 297 298 297 297 296 294 297 295 297 297 296 295 297 298 297 293 296 297 296 295 294 295 296 294 294 295 296 297 300 301 301 299 299 300 299 298 296 295 296 297 296 295 294 295 296 296 296 296 294 294 292 291 292 293 293
295 296 296 296 296 296 297 294 297 295 295 294 294 295 296 297 297 293 297 298 296 296 293 294 295 293 296 295 296 296 296 296 296 297 298 298 298 295 295 295 295 295 295 294 295 296 295 297 297 297 297 298 300 300 295 298 296 296 297 296 297 295 295 297 296 296 296 295 295 292 291 291 292 293
294 296 296 296 295 297 296 295 295 296 296 295 295 295 293 294 296 295 296 297 297 295 295 294 293 294 294 295 294 295 294 292 295 296 295 296 295 295 296 296 295 295 295 295 295 296 296 296 295 295 292 292 292 291 293 294 294 297 295 295 296 296 296 297 297 297 295 294 294 293 289 289 290 292
295 295 297 297 298 297 295 297 297 297 297 296 296 296 295 294 295 296 298 294 296 294 295 294 294 294 293 293 293 292 293 294 292 294 293 295 295 295 294 292 293 294 294 295 296 296 296 294 295 295 292 290 290 289 291 299 292 293 299 295 295 296 296 296 296 295 296 295 293 293 292 290 291 292
293 295 296 296 297 297 297 297 296 296 296 297 296 295 295 295 296 296 298 296 294 294 294 294 293 293 294 293 293 293 293 294 294 293 293 293 292 293 293 293 293 294 294 295 295 295 296 296 294 294 293 290 289 289 289 292 293 293 293 297 294 295 297 295 293 292 295 296 294 294 294 291 292 294
295 295 295 296 296 296 296 296 296 296 297 296 295 295 295 295 295 295 294 294 295 293 295 294 293 293 292 293 291 291 291 291 292 292 292 292 294 293 292 292 292 294 293 292 295 295 295 295 294 293 293 291 290 290 292 291 291 294 294 290 296 296 294 295 292 294 294 293 295 296 296 296 294 290
295 296 297 296 296 296 296 297 296 296 295 296 295 295 295 293 294 293 293 292 292 292 292 293 292 291 292 291 290 291 291 292 291 292 292 292 292 292 292 292 291 291 292 291 291 294 294 294 294 293 293 294 293 293 294 293 293 294 294 295 289 294 294 295 293 293 292 295 296 292 292 293 291 294
296 296 296 297 297 297 296 296 296 297 296 296 296 294 295 295 294 293 293 293 291 292 291 291 291 291 290 291 291 290 289 290 290 291 291 291 290 290 289 288 290 291 291 289 291 292 293 295 294 284 289 293 294 297 294 292 290 292 292 294 289 286 288 290 297 297 294 296 295 293 292 291 291 292
297 296 297 298 297 297 297 297 298 296 297 296 296 296 295 292 293 291 291 288 290 290 291 291 291 291 291 291 291 290 290 289 289 290 290 290 290 290 289 289 290 291 290 290 290 292 294 297 295 295 297 293 293 290 288 289 288 290 291 293 294 290 288 289 289 290 298 298 293 292 292 292 292 291
296 297 297 297 298 297 298 297 298 297 296 297 294 296 294 293 293 292 292 292 292 292 292 292 292 292 292 292 292 291 291 290 290 290 289 290 290 289 289 290 290 290 291 291 292 293 292 295 295 293 291 292 291 290 288 289 289 290 290 291 291 293 293 291 289 289 289 289 290 293 295 293 290 288
297 298 297 298 298 298 298 297 297 297 297 297 295 295 292 293 293 293 292 293 293 293 293 293 293 292 292 292 292 291 291 291 291 290 290 290 290 290 290 290 289 290 291 291 291 291 292 293 293 292 290 290 291 290 289 289 289 289 290 290 291 291 291 293 293 291 288 288 288 289 288 288 289 289
297 298 297 297 297 298 298 298 294 297 297 296 294 294 293 293 292 293 293 293 293 293 292 292 292 293 292 292 292 291 291 290 291 291 291 290 290 290 290 290 290 290 290 291 290 290 291 291 292 292 291 290 290 290 289 289 288 288 289 289 289 290 291 291 291 291 292 293 292 287 288 288 289 288
Wind_Speed
7 7 8 7 6 6 6 5 5 5 5 5 5 5 5 4 5 5 7 8 7 9 10 8 9 11 10 9 10 10 10 14 14 11 10 11 11 15 19 21 25 25 27 26 25 25 26 26 27 26 27 25 25 25 25 25 24 24 26 24 26 22 11 18 18 17 17 19 21 20 21 24 25 23
7 8 8 7 7 6 6 6 6 6 5 5 6 6 6 6 6 5 6 7 7 6 7 8 8 11 11 9 8 8 8 15 14 12 11 11 12 15 18 22 24 25 26 26 24 26 25 25 26 27 27 26 26 26 26 27 24 26 25 24 24 21 22 16 17 18 17 16 20 21 22 25 23 22
7 9 9 7 6 6 6 6 6 6 6 6 6 6 6 7 6 5 4 6 7 6 7 7 8 10 9 10 9 8 8 12 14 11 12 12 15 15 14 21 23 24 24 24 28 25 27 25 25 27 27 27 27 26 27 26 26 25 24 24 23 21 21 19 19 17 22 18 18 21 20 19 20 22
8 9 9 7 6 6 6 7 7 7 7 6 6 6 6 7 6 5 5 7 7 7 6 6 7 11 8 10 11 10 8 9 13 12 12 13 14 12 11 17 23 21 22 21 23 26 26 27 27 26 27 28 27 27 27 27 27 24 26 25 23 24 21 22 20 20 17 22 17 19 18 15 21 22
9 9 9 8 8 7 8 7 7 7 7 7 7 7 7 7 7 6 6 6 7 6 6 6 7 8 9 8 11 10 10 10 9 10 11 12 12 12 11 11 20 19 19 19 18 19 24 26 27 26 28 28 27 27 26 27 26 26 26 25 25 23 24 21 22 22 18 19 18 16 17 19 20 20
7 8 9 9 9 8 9 8 8 7 7 7 7 7 8 7 7 7 5 6 6 7 7 7 7 7 9 8 11 10 11 11 10 10 10 9 13 12 11 11 13 18 17 17 18 16 19 20 24 27 25 23 27 28 29 28 27 27 25 22 23 23 24 24 23 22 24 15 18 7 13 16 21 23
8 9 8 9 8 7 9 8 7 7 7 7 8 8 7 8 7 7 7 5 7 7 8 7 8 9 10 10 11 11 9 9 9 10 10 10 9 10 12 11 10 14 13 16 17 16 17 19 18 21 22 24 22 24 26 27 28 27 27 24 24 23 22 22 21 21 21 23 15 13 11 7 15 16
8 9 9 8 8 8 9 8 8 7 7 7 7 8 7 7 7 7 7 7 6 7 7 9 9 8 8 9 11 9 8 9 9 8 8 9 9 10 9 10 11 11 13 14 15 16 15 16 19 20 20 24 22 24 26 26 28 25 27 27 26 26 24 22 22 20 20 21 20 16 13 14 10 15
9 8 8 8 8 8 9 8 8 8 8 7 7 7 7 7 7 6 7 7 7 7 8 7 8 8 7 7 8 11 10 10 9 8 9 9 9 9 9 8 8 12 13 12 16 15 14 16 16 18 21 19 23 21 23 25 26 28 28 26 26 25 24 23 22 22 21 21 20 18 16 13 12 12
7 7 7 7 8 8 8 8 8 8 9 7 8 8 7 7 7 7 7 7 7 7 8 8 7 9 9 8 8 10 9 10 10 10 9 9 9 10 10 10 8 8 9 10 12 13 14 16 15 16 18 19 21 21 23 23 27 28 28 28 27 25 23 23 22 21 21 20 20 19 17 14 13 11
6 7 6 7 7 7 8 8 8 8 8 7 8 7 7 7 7 7 7 7 8 8 8 8 8 8 8 8 9 10 10 8 9 9 9 10 9 9 11 11 10 10 10 10 9 12 12 10 14 12 16 20 18 22 21 25 29 29 27 27 26 26 25 25 24 23 21 21 19 19 17 17 15 14
6 6 6 6 6 7 7 7 7 7 7 7 7 6 6 6 7 7 7 7 7 8 9 9 9 9 9 8 8 8 9 9 10 10 9 10 10 10 9 11 12 11 11 11 10 11 12 13 15 15 16 18 19 22 21 28 27 29 26 25 25 25 26 25 24 23 24 22 21 19 17 17 15 15
5 6 6 5 6 7 8 8 7 7 6 5 6 6 6 6 7 7 7 7 7 8 8 8 9 9 10 10 10 11 11 12 11 10 9 8 9 8 8 9 10 11 12 10 10 12 12 11 12 13 13 15 19 20 25 22 26 26 24 24 24 25 24 25 24 24 23 21 21 19 18 17 17 15
4 4 5 6 9 9 10 8 8 10 11 10 7 6 5 6 6 7 8 7 7 8 9 9 9 11 11 11 11 11 10 9 10 10 10 10 10 10 9 8 9 12 12 11 10 11 11 10 10 12 12 14 15 16 17 18 19 22 23 23 25 25 25 25 25 24 23 21 20 18 17 17 17 16
5 4 5 5 7 9 9 8 9 10 10 10 11 11 10 9 7 6 8 8 8 8 9 8 9 10 10 12 10 10 9 9 10 9 9 9 9 10 11 12 10 12 14 11 9 11 12 10 11 11 11 12 14 13 15 20 21 22 22 23 22 23 24 25 26 24 23 23 23 19 18 17 17 17
5 5 4 4 4 5 7 9 8 9 9 10 10 9 9 9 10 10 7 6 8 8 8 9 9 9 9 10 10 10 10 10 10 9 9 9 9 10 10 10 11 11 13 11 9 9 10 10 9 10 11 10 10 10 14 19 20 20 22 22 23 22 22 23 25 26 24 24 22 21 20 19 17 16
6 5 5 4 3 4 6 7 8 9 8 7 8 10 10 8 8 8 9 9 6 6 7 8 9 8 7 9 10 9 9 9 9 9 9 9 8 8 10 9 9 11 12 10 9 9 11 11 10 11 11 10 10 10 13 18 19 19 19 21 23 22 20 19 22 25 26 23 23 22 22 22 20 18
5 5 6 6 5 5 5 5 7 7 7 7 6 5 5 5 5 5 4 3 3 5 6 6 7 6 6 7 8 8 9 10 10 9 10 10 8 8 8 7 8 8 10 11 9 8 11 11 9 10 10 10 10 10 11 14 18 18 18 20 22 23 22 21 21 23 24 25 25 23 23 23 22 20
3 4 4 6 7 6 6 5 5 7 6 5 4 4 4 4 4 4 4 5 4 4 4 4 5 5 5 5 7 8 8 9 7 6 8 9 7 6 4 4 8 8 10 12 9 9 10 10 9 9 10 10 10 10 12 14 17 17 16 17 21 22 22 22 21 22 23 25 26 24 24 24 23 21
3 3 4 5 6 6 6 5 3 3 4 5 5 4 4 3 3 3 3 2 4 5 4 3 4 4 3 4 5 6 7 8 9 6 7 7 8 7 7 8 7 10 10 11 10 8 11 10 10 9 8 9 10 11 11 13 16 16 15 15 19 22 22 22 22 22 23 24 25 26 25 25 23 21
3 3 3 4 6 6 6 7 7 5 7 5 4 4 4 3 3 3 2 4 1 2 3 1 1 1 1 0 3 6 7 7 8 7 9 11 9 10 10 9 9 10 10 11 12 9 10 11 10 9 9 7 11 11 12 13 15 16 14 15 17 22 21 21 20 22 23 24 24 25 25 26 23 20
3 3 1 2 5 6 6 8 7 7 6 4 4 4 3 3 3 3 2 2 2 4 4 4 3 1 2 2 3 6 7 8 8 9 10 10 8 9 9 9 9 7 10 12 13 8 11 10 11 10 9 6 8 10 11 13 13 15 15 16 17 21 21 20 20 21 22 23 25 24 26 27 24 15
3 4 3 2 2 3 7 9 8 8 7 3 4 3 2 3 3 3 1 1 1 2 2 2 2 2 1 1 3 3 2 4 6 6 7 7 8 9 9 9 8 7 9 11 14 8 9 11 11 10 9 9 8 10 11 13 12 13 13 15 14 20 19 20 18 21 23 22 25 24 27 27 24 14
4 4 4 3 3 4 7 8 7 6 5 3 4 2 1 2 3 2 1 2 2 2 2 1 1 2 2 2 2 3 3 4 4 5 5 6 7 7 8 8 9 8 8 9 13 9 7 9 11 10 9 9 10 11 11 11 13 12 13 15 14 19 20 20 19 21 22 21 23 24 26 27 25 16
6 5 4 3 4 3 6 6 7 6 4 3 3 2 1 2 3 1 2 2 5 0 1 0 1 3 3 3 4 3 4 4 4 4 4 4 5 6 7 8 8 7 7 7 9 8 7 9 10 10 9 8 9 10 10 10 12 12 12 13 14 15 16 16 16 17 20 22 23 24 23 25 26 21
5 5 4 4 4 4 5 6 6 6 6 3 3 2 5 4 2 2 1 1 1 1 1 2 3 3 4 5 5 5 4 4 5 4 4 4 4 4 4 5 6 7 8 7 7 8 8 8 10 9 9 9 10 10 11 11 11 13 11 10 13 15 14 15 16 17 18 18 18 22 21 23 23 24
5 4 4 4 5 5 6 6 6 6 6 5 3 6 5 5 3 2 2 1 2 1 2 2 2 3 3 4 5 5 5 5 5 5 5 5 5 4 3 3 4 5 5 6 6 7 7 7 7 8 9 9 9 10 9 11 12 13 12 11 10 14 14 14 15 16 16 17 17 23 21 23 23 23
5 5 4 5 7 6 7 7 6 5 2 4 6 5 5 5 4 3 2 3 1 1 1 2 2 3 3 3 4 4 4 4 4 4 4 4 3 3 3 3 4 4 5 6 6 6 6 7 7 7 8 9 9 11 10 9 9 11 13 12 9 11 14 14 14 15 16 16 16 17 18 19 19 19
5 5 9 9 7 7 7 8 8 7 6 5 5 5 4 5 4 3 3 1 2 1 1 1 1 1 2 2 2 2 3 4 4 3 3 3 2 2 2 1 1 1 2 3 4 5 5 5 7 8 7 7 8 8 8 9 10 11 12 12 11 10 13 14 14 15 15 16 16 17 18 17 18 18
7 8 9 8 8 6 6 5 3 3 3 4 4 3 4 4 2 3 2 2 1 1 1 1 2 2 1 1 1 2 2 3 4 4 5 5 5 6 6 4 2 1 1 1 3 4 4 4 5 7 7 7 7 7 7 9 8 9 11 11 11 5 10 13 14 14 15 15 16 16 15 16 16 17
5 6 6 5 4 5 4 4 5 5 5 4 4 3 3 2 2 2 2 1 1 1 1 1 1 1 1 1 2 1 1 2 3 3 4 5 5 6 6 5 5 6 1 2 1 3 3 4 4 5 6 7 7 7 7 7 6 8 10 10 10 9 10 10 12 14 14 14 14 14 15 15 16 17
6 6 5 6 5 5 4 4 4 3 3 2 3 3 3 2 1 2 2 1 1 0 1 1 1 1 2 2 2 2 2 2 2 2 3 4 5 5 5 5 5 6 6 4 1 2 1 2 3 3 2 4 6 8 7 6 7 8 9 9 9 8 9 10 10 11 13 13 14 15 15 15 15 15
4 5 6 6 5 5 3 4 3 3 3 3 3 2 3 3 3 4 4 2 1 0 2 1 2 2 3 2 2 2 2 2 2 2 3 2 4 5 4 5 5 6 7 6 7 5 3 2 2 3 2 2 3 6 7 8 8 8 8 9 9 9 9 8 9 10 10 11 12 13 15 15 14 14
6 7 5 6 6 6 5 4 3 3 3 3 3 4 2 3 4 3 3 3 1 1 2 2 2 3 3 3 3 3 3 3 2 1 1 3 4 5 5 5 5 5 5 6 6 6 6 6 4 5 5 3 1 2 4 6 8 8 7 7 8 9 8 8 8 10 9 10 10 11 13 14 14 14
4 4 5 5 4 6 6 3 5 4 3 2 2 3 4 4 4 3 5 3 2 2 1 2 2 2 4 4 4 4 4 4 5 3 2 2 3 4 5 5 5 5 6 6 6 6 6 6 7 7 4 2 3 5 0 3 7 8 7 7 7 8 8 7 7 8 9 9 9 9 9 12 14 13
4 5 6 5 5 7 6 4 5 5 4 4 4 4 3 3 5 5 5 3 3 2 3 2 2 2 3 5 3 5 5 5 5 4 4 4 4 5 4 4 5 5 6 5 6 6 6 6 6 7 6 5 6 4 2 4 1 5 8 7 7 7 7 7 7 7 8 8 8 8 8 11 11 12
6 5 8 7 7 7 5 7 6 6 6 5 5 5 5 4 5 5 2 2 4 3 4 2 3 3 3 3 4 3 4 4 4 3 3 4 4 4 4 4 5 5 6 5 5 4 5 5 5 6 6 5 6 6 5 2 4 4 6 7 6 6 7 7 7 7 7 7 7 7 7 6 8 10
5 6 7 8 7 7 7 6 6 6 6 6 6 6 6 6 5 4 2 4 5 3 3 3 3 3 3 3 3 4 4 3 3 3 3 4 3 3 3 3 4 5 5 6 5 4 4 4 4 5 5 5 6 6 7 7 3 2 3 4 4 5 6 6 5 5 6 6 6 5 5 5 6 5
7 8 8 8 7 7 7 7 6 6 6 6 6 6 6 6 6 5 4 5 5 4 3 3 4 3 3 4 3 4 4 4 5 5 4 3 4 5 3 3 4 5 5 6 5 5 4 3 4 5 5 5 4 6 5 6 7 5 4 5 3 4 3 4 5 6 6 5 6 3 2 1 4 5
8 8 8 8 7 7 6 6 6 6 6 6 6 6 6 5 6 4 3 3 3 4 4 4 4 3 3 4 3 3 4 6 5 5 4 4 4 4 4 4 4 4 4 5 4 5 4 3 4 5 5 5 4 4 4 5 6 6 4 5 6 3 3 3 4 5 4 6 6 4 4 3 4 1
7 7 7 7 7 6 6 6 6 5 5 5 5 5 5 6 5 4 4 3 3 3 4 4 4 3 4 4 3 4 4 4 4 4 4 4 4 4 4 4 5 4 4 4 5 5 4 4 2 1 4 4 4 5 4 4 3 4 4 1 9 7 7 7 5 5 4 5 5 4 4 4 3 2
7 8 7 6 6 6 6 6 5 5 5 5 5 5 5 3 4 4 3 2 4 3 4 5 4 4 4 4 4 4 4 5 5 4 4 5 5 5 4 4 5 4 4 5 4 5 5 4 2 4 4 3 3 3 4 4 5 5 4 5 0 9 11 10 10 9 7 5 4 5 5 3 2 2
6 7 7 6 5 5 5 5 5 5 6 5 4 5 3 3 3 3 4 4 4 4 5 5 5 5 5 4 4 4 4 5 5 5 5 5 5 5 6 6 5 5 5 5 6 5 4 5 4 3 3 4 3 3 4 4 5 5 5 4 4 4 2 11 11 12 12 11 10 7 5 4 4 4
6 6 6 5 4 4 5 5 5 5 6 5 3 3 3 4 4 4 5 5 5 5 5 5 5 5 5 5 4 4 4 5 5 5 5 5 5 5 6 6 6 6 6 6 5 5 4 3 2 2 4 4 3 4 5 5 5 5 5 5 5 5 6 2 2 9 9 11 14 14 14 13 9 5
6 6 6 6 5 5 5 5 3 5 5 3 3 3 3 4 4 4 4 4 5 5 5 5 5 5 5 5 5 5 5 6 6 5 5 5 5 5 5 5 6 6 6 6 6 6 5 4 4 3 4 4 3 4 4 4 5 6 6 6 5 5 5 4 5 5 4 3 11 16 14 12 11 10
Wind_Direction
74 71 67 68 66 59 57 52 49 46 42 41 38 30 25 2 34 43 49 30 4 18 16 1 6 8 8 8 13 12 17 11 5 14 15 14 15 12 11 9 16 18 21 18 18 17 18 18 17 17 19 19 19 16 15 14 14 14 12 7 11 1 285 224 235 240 233 223 215 206 209 210 203 200
77 74 71 69 69 60 58 56 49 48 45 44 44 40 34 23 42 34 50 49 17 359 20 17 360 1 4 3 6 3 8 13 6 16 16 14 13 12 22 17 14 19 19 22 20 21 20 20 19 19 19 19 19 17 16 15 12 15 10 10 8 1 5 344 253 235 241 230 218 213 205 207 205 205
80 78 75 70 69 63 62 59 53 48 45 46 47 45 43 37 32 31 35 61 44 5 11 15 14 1 1 6 4 7 7 15 10 17 18 15 13 13 26 22 13 17 17 18 24 21 23 21 22 20 21 19 20 18 17 14 14 14 13 11 6 4 3 358 349 267 235 240 228 218 214 212 209 207
83 80 74 64 64 63 65 59 52 50 46 42 43 43 45 42 27 23 43 57 49 26 13 11 11 9 1 11 6 7 8 10 17 17 24 20 17 21 17 31 19 15 16 15 20 24 23 23 23 21 20 20 20 19 18 18 15 15 16 11 9 8 2 1 353 344 273 234 237 227 214 212 209 216
85 83 80 73 66 62 61 56 55 50 45 45 45 43 45 44 33 24 37 52 60 46 22 19 9 8 358 18 10 10 11 13 16 16 24 24 23 21 19 21 27 10 16 13 12 21 22 22 24 23 22 21 19 20 19 18 17 17 16 12 12 8 6 1 360 352 332 249 232 236 221 201 208 219
86 86 83 78 70 62 63 59 55 50 49 46 48 46 44 44 40 22 28 47 44 42 22 14 14 15 15 17 14 11 10 12 14 20 16 19 24 24 19 21 26 9 14 11 10 14 22 20 23 25 23 19 20 19 19 18 17 18 14 13 12 11 8 4 360 357 355 311 224 242 236 206 199 209
95 90 86 83 76 71 69 64 58 54 55 54 57 54 49 49 42 36 28 29 42 39 39 16 16 14 15 18 8 7 10 11 13 18 21 16 20 25 23 23 24 12 3 17 14 10 22 22 18 23 21 22 18 17 20 16 18 14 15 13 13 10 9 8 4 2 360 1 17 36 16 249 208 206
98 94 90 85 81 77 73 66 64 57 56 57 57 58 55 53 47 38 38 35 40 35 41 29 24 17 12 13 10 3 7 12 18 18 17 15 17 16 16 19 22 10 3 14 20 14 18 26 26 20 24 23 18 21 18 20 17 15 14 13 11 10 7 5 6 3 5 4 4 16 23 16 323 234
100 95 90 88 84 80 76 72 67 61 58 57 56 56 57 54 51 48 41 43 42 44 41 37 32 20 22 18 15 10 7 10 18 21 24 18 16 16 18 17 9 6 6 16 21 14 18 26 25 25 24 20 22 18 19 19 17 15 14 12 12 8 7 5 4 3 4 5 5 5 9 5 356 331
99 97 93 89 88 83 81 78 73 68 63 59 58 56 53 55 53 49 47 43 42 44 47 38 34 30 18 16 25 14 10 12 9 12 20 27 23 18 17 19 12 6 6 10 17 14 18 21 26 29 21 23 20 19 21 19 18 15 12 11 9 6 5 6 4 3 4 2 1 1 359 358 356 336
101 98 96 97 96 93 88 85 81 80 74 65 61 55 54 52 51 51 47 44 45 43 42 45 37 30 30 19 12 10 12 20 22 7 6 21 19 25 20 12 9 3 3 11 36 24 355 23 29 27 34 22 20 19 19 18 18 15 12 10 8 6 5 6 4 4 3 1 357 355 353 353 348 344
102 100 100 99 100 102 99 92 87 82 81 74 67 58 56 51 50 49 47 45 43 42 43 39 34 32 23 22 21 14 13 16 20 18 7 11 6 11 24 25 8 359 357 2 13 17 10 17 19 22 27 23 18 20 15 16 15 15 11 7 8 7 6 4 4 3 3 360 356 353 350 345 344 336
108 106 100 103 103 93 81 58 57 46 27 64 74 60 53 51 50 50 48 47 45 46 44 44 39 36 30 23 18 17 17 16 9 0 5 11 10 5 20 28 23 7 352 353 9 17 8 7 18 17 14 16 14 18 16 12 11 9 8 7 5 6 6 6 360 2 1 359 354 350 347 342 338 331
109 106 109 93 97 104 100 93 88 79 66 47 46 48 41 43 54 53 49 46 46 46 45 39 35 36 33 23 19 18 13 6 4 7 8 11 7 12 19 31 31 10 357 352 5 18 10 1 15 14 17 19 18 16 16 7 1 2 4 4 6 4 5 5 3 357 356 356 354 350 344 340 332 327
130 125 122 125 122 117 111 101 97 94 92 89 81 66 48 29 24 48 55 51 41 48 49 41 38 38 34 28 22 19 8 10 11 9 9 10 13 18 16 14 11 18 355 349 352 18 7 3 7 13 16 14 20 19 15 360 359 1 3 5 2 3 2 4 3 360 357 353 351 349 347 340 334 323
143 138 138 132 136 136 131 129 117 104 99 97 91 83 73 63 48 32 27 35 52 45 51 46 39 36 34 31 26 16 9 4 8 12 14 15 16 20 24 21 15 357 354 345 352 11 9 1 2 13 10 5 7 14 16 4 1 359 2 4 4 360 359 0 2 2 359 356 351 349 346 342 334 323
149 149 144 143 134 125 145 146 133 127 117 104 108 113 107 84 66 57 43 18 16 42 50 50 47 31 18 32 28 13 357 359 14 12 18 12 19 24 27 19 12 7 351 347 352 10 11 357 1 10 7 3 3 4 15 8 2 359 360 4 2 358 355 356 1 1 360 354 351 350 347 341 335 326
152 157 158 155 154 156 170 153 149 142 139 140 140 130 103 98 116 119 115 114 49 22 42 44 49 35 19 27 12 6 359 9 13 14 14 5 9 6 11 13 18 18 7 3 329 6 9 360 355 5 3 359 2 3 12 10 4 358 0 3 2 0 360 0 2 3 1 356 348 348 346 342 336 329
143 162 170 165 161 165 171 167 168 154 151 142 129 120 108 93 76 62 53 37 29 37 37 47 52 44 27 18 15 7 3 4 358 355 351 346 338 341 5 50 30 33 25 1 353 8 4 359 353 1 357 357 0 1 5 15 7 357 359 4 5 359 359 359 360 2 2 358 352 346 346 343 339 334
155 164 176 166 164 170 174 154 219 246 168 149 133 120 114 106 96 77 76 9 330 333 351 33 47 49 40 355 26 14 0 358 352 1 13 11 12 14 23 24 23 28 21 14 359 350 6 359 352 345 351 355 359 3 2 9 11 354 0 3 7 360 357 357 358 360 1 0 359 353 350 347 342 339
155 169 180 179 169 170 172 157 191 217 250 146 136 117 113 103 88 75 101 145 202 277 285 320 98 25 293 279 59 29 11 357 333 3 18 16 6 18 18 17 17 24 15 14 359 341 3 358 355 343 344 345 3 2 4 1 12 351 3 7 10 1 355 354 357 0 359 360 359 356 355 353 346 346
153 113 83 231 179 174 163 156 185 194 235 165 136 132 118 100 89 89 100 143 148 195 214 175 171 102 3 297 157 60 10 2 356 18 21 358 0 19 17 12 7 16 25 17 354 337 10 347 360 346 337 356 16 6 5 3 6 2 4 8 17 3 354 352 357 1 1 2 0 355 358 359 354 359
151 138 127 10 293 176 137 156 172 196 237 182 150 137 121 93 88 82 85 106 119 136 169 126 180 151 171 320 6 53 119 16 19 21 10 358 9 11 13 11 1 13 19 19 360 345 355 353 2 352 350 358 6 7 2 6 8 7 4 4 7 7 356 356 359 3 2 1 4 1 2 2 1 4
153 146 141 126 86 112 140 156 165 187 250 253 158 171 122 100 101 129 121 35 8 79 41 53 52 52 29 16 15 13 14 20 27 15 8 7 359 3 8 11 15 21 3 15 358 347 339 355 353 355 2 351 355 349 358 6 10 9 8 7 10 5 3 3 6 7 3 3 5 4 5 3 4 8
161 163 148 132 102 142 138 147 149 156 185 279 197 193 108 44 66 130 167 133 259 141 109 71 60 48 47 49 40 32 27 15 6 357 359 358 355 356 359 2 10 15 16 20 342 348 349 357 354 350 1 359 356 349 354 2 7 9 7 7 11 9 5 6 5 7 7 6 8 4 6 5 8 12
168 164 152 143 127 143 129 125 129 134 149 194 220 72 70 87 143 220 164 210 245 336 351 16 34 32 31 35 41 36 33 23 3 342 339 334 330 338 341 348 347 358 358 6 348 348 346 7 359 348 356 353 360 355 355 2 6 3 6 5 16 16 7 6 6 8 9 7 9 3 1 3 7 11
160 153 134 116 123 143 130 126 122 126 139 184 92 112 131 127 131 234 221 273 290 356 2 359 24 28 27 26 34 32 24 18 1 346 343 332 325 315 298 282 297 309 322 323 340 342 346 356 358 355 349 351 354 357 5 4 359 359 2 4 11 17 14 8 10 9 9 10 8 1 6 9 7 8
153 156 157 129 139 140 131 121 111 95 73 85 119 137 128 151 202 235 225 233 324 297 344 344 9 23 23 18 27 29 7 348 343 328 318 326 327 330 326 289 261 282 302 315 331 335 344 344 356 350 351 352 360 5 356 4 359 4 357 353 10 17 15 12 10 11 12 12 12 10 10 10 9 8
162 102 104 123 143 138 129 125 125 110 90 97 110 121 158 203 211 222 255 283 267 304 340 351 344 20 24 17 1 345 319 301 283 302 325 314 302 306 262 235 344 332 277 308 314 333 335 341 342 345 354 2 2 4 360 360 357 3 1 354 2 9 13 14 11 11 10 13 16 15 16 11 9 8
108 132 136 130 130 144 157 171 168 147 105 90 101 118 225 221 225 236 229 227 253 306 333 357 343 355 350 333 12 288 264 291 9 355 345 340 4 356 356 353 70 102 53 325 331 338 337 334 339 340 353 6 3 354 354 352 358 359 6 7 357 348 12 13 15 13 11 14 16 17 15 15 14 13
147 149 159 150 120 80 70 59 80 106 141 169 174 182 204 215 227 219 241 269 287 287 304 322 330 348 330 270 236 254 320 353 20 4 336 338 354 350 346 341 2 7 70 146 43 10 338 335 327 334 358 1 3 357 342 349 357 0 7 7 8 17 352 3 13 18 13 15 18 18 18 16 15 17
158 154 119 123 159 156 170 171 181 175 181 180 193 202 205 205 141 54 44 269 240 256 321 300 285 262 268 280 341 327 319 1 13 8 343 350 340 345 336 339 2 355 356 9 53 147 298 333 319 323 326 353 356 345 341 360 6 3 5 6 7 17 9 6 5 13 16 19 23 21 21 20 16 13
141 157 172 176 177 190 195 197 198 185 196 196 198 207 226 211 206 215 233 231 223 320 256 288 312 312 306 305 306 310 320 357 354 9 336 341 333 332 329 341 348 355 350 352 355 1 355 316 228 276 289 291 356 341 346 359 8 8 5 3 3 12 12 10 6 6 6 14 23 23 19 22 22 17
175 186 190 190 191 195 203 207 206 204 210 212 212 213 206 236 238 239 243 252 244 217 273 301 285 307 311 302 318 319 333 329 330 87 319 329 331 325 345 338 348 350 341 342 348 353 343 331 295 219 216 214 226 355 354 352 358 2 2 5 3 8 11 5 9 8 11 19 14 20 23 20 21 21
186 187 198 198 202 201 211 213 216 217 219 228 233 240 225 235 236 239 248 251 241 239 260 258 288 291 293 306 309 317 321 325 316 321 291 303 307 329 333 333 341 339 338 336 345 351 339 332 335 337 329 281 206 176 131 324 357 355 356 6 7 1 360 4 0 10 11 20 16 21 21 22 18 18
193 197 203 205 208 207 212 219 225 226 231 233 239 241 246 244 240 238 249 227 242 253 251 264 270 273 289 296 305 304 309 312 308 310 322 320 326 323 320 324 323 328 328 331 339 345 338 334 339 341 343 341 347 353 80 198 339 349 352 354 3 357 353 353 1 9 14 18 20 18 24 20 19 18
205 202 211 211 210 208 216 220 223 226 230 238 240 246 248 253 250 245 229 120 245 253 260 273 276 281 279 284 288 290 286 292 302 310 306 306 309 308 313 318 319 319 323 330 328 332 337 335 341 347 343 341 349 351 356 98 208 262 354 347 346 358 344 342 356 9 16 14 21 21 21 23 27 30
209 199 211 217 215 214 220 226 221 224 230 233 239 244 246 253 260 259 221 235 241 245 236 240 258 264 272 280 286 291 297 290 289 291 291 297 302 314 316 315 318 318 323 318 320 324 328 325 345 352 344 342 339 343 341 336 345 172 181 338 329 334 334 340 353 2 1 10 17 12 19 27 30 34
211 210 209 216 214 216 216 220 223 227 231 231 232 240 246 249 250 251 244 245 247 247 246 251 254 262 270 276 277 287 291 296 297 300 303 299 302 303 308 311 312 313 316 318 319 320 324 335 356 350 345 337 331 335 327 317 306 320 154 170 303 315 333 341 341 344 356 357 357 349 45 172 197 203
214 219 218 217 218 214 220 220 219 226 231 234 238 243 245 251 253 252 254 248 247 245 253 259 263 259 261 261 270 275 272 269 266 274 283 291 292 291 292 304 304 302 302 306 312 317 321 339 358 341 332 317 312 296 296 283 281 270 256 168 197 240 317 329 324 336 342 354 335 344 5 3 22 25
212 215 221 220 224 220 219 222 225 223 227 233 237 235 243 251 254 257 258 265 259 257 257 257 251 247 261 264 263 267 277 281 280 276 275 276 279 279 284 284 284 282 289 299 300 308 319 346 45 134 253 274 265 264 250 267 310 342 346 55 181 212 230 253 288 310 316 323 320 327 335 360 344 2
217 223 227 218 223 227 225 227 222 224 229 225 231 229 228 233 243 252 263 251 250 249 262 262 257 252 252 248 253 250 254 269 277 281 279 281 286 285 247 242 278 286 288 290 295 302 317 328 182 201 229 251 271 296 318 329 320 321 327 319 314 185 205 219 232 246 274 302 319 323 331 338 331 351
216 232 231 227 223 230 230 227 227 225 230 226 226 225 228 234 238 224 238 241 234 240 247 254 256 257 260 260 259 256 262 263 263 265 269 269 271 275 282 283 284 291 290 286 287 289 291 289 281 284 284 278 279 289 297 314 308 297 303 321 332 330 263 197 214 223 230 241 253 264 292 311 325 344
214 217 232 234 227 225 228 229 232 229 228 228 227 221 225 236 236 234 241 248 249 249 246 252 257 257 254 257 257 254 254 261 264 263 263 269 268 269 277 282 282 279 280 284 284 287 290 277 263 271 291 288 291 291 297 300 299 308 311 307 314 307 306 304 222 205 220 234 236 239 247 258 269 295
209 215 220 225 228 234 234 232 230 231 228 229 226 228 226 229 240 244 239 238 245 244 247 249 252 253 251 253 253 253 254 245 251 257 258 259 263 263 260 261 271 273 273 279 285 285 286 290 287 266 263 269 260 267 278 282 288 302 294 289 287 293 301 312 314 312 291 280 203 210 227 232 246 257